Temperature
7 7 7 7 7 7 6 6 7 7 8 8 7 7 6 6 6 7 6 7 8 8 8 8 9 8 8 9 9 9 10 10 11 11 11 11 12 12
6 6 6 6 6 6 6 6 6 6 7 7 7 6 6 6 6 6 6 7 7 7 8 8 8 8 8 8 8 8 9 10 10 11 11 11 11 11
5 5 5 5 5 5 6 6 6 6 6 6 6 6 5 5 5 5 5 6 6 6 7 7 8 8 8 8 8 8 8 9 9 10 10 11 11 11
3 3 4 4 4 4 5 5 5 5 5 6 6 5 4 4 5 5 5 5 5 6 6 7 7 7 7 8 8 8 8 8 9 9 10 10 10 10
1 2 2 3 3 3 4 4 4 4 4 4 4 4 4 4 4 4 4 4 5 5 6 6 6 7 7 7 7 7 8 8 8 8 9 10 10 10
1 1 1 1 1 2 2 2 2 3 3 3 3 3 3 3 2 3 3 3 4 4 5 5 6 6 6 6 6 7 7 7 7 8 9 9 10 10
-0 -0 0 0 0 1 1 1 1 2 2 2 2 2 2 1 1 2 2 2 3 3 3 4 4 4 5 5 6 6 7 7 7 7 8 9 9 10
-1 -1 -1 -1 -1 -0 -0 -0 0 0 1 1 1 0 0 0 0 0 -0 0 0 2 1 2 2 3 4 4 5 5 6 6 6 7 7 8 8 9
-3 -3 -3 -3 -2 -3 -2 -2 -1 -1 -0 -0 -1 -1 -2 -1 -1 -1 -2 -2 -1 -0 -1 0 1 1 2 3 4 5 5 6 6 6 6 7 8 8
-4 -4 -4 -5 -5 -5 -5 -4 -4 -4 -2 -2 -3 -3 -3 -3 -3 -3 -3 -3 -2 -1 -1 -1 -0 0 1 2 2 3 4 5 5 5 5 6 7 8
-6 -6 -5 -6 -7 -7 -6 -6 -6 -5 -5 -4 -3 -4 -3 -3 -3 -3 -4 -4 -3 -2 -2 -2 -1 -1 -0 1 1 2 3 4 4 5 5 5 6 7
-8 -8 -7 -8 -8 -8 -7 -7 -7 -7 -6 -5 -4 -4 -4 -4 -4 -4 -5 -5 -5 -4 -3 -3 -2 -2 -1 -0 1 2 2 3 3 4 4 5 5 6
-9 -9 -9 -9 -8 -8 -7 -8 -8 -7 -6 -5 -5 -4 -5 -5 -5 -6 -6 -5 -5 -5 -4 -4 -4 -4 -3 -2 -2 -1 0 1 2 3 4 4 5 5
-9 -9 -9 -9 -8 -8 -8 -8 -8 -7 -7 -6 -6 -6 -5 -5 -5 -5 -5 -5 -5 -5 -4 -4 -5 -4 -5 -4 -3 -2 -2 -0 1 2 3 4 4 5
-10 -10 -9 -9 -8 -8 -8 -8 -8 -9 -9 -8 -8 -8 -7 -6 -6 -6 -5 -5 -5 -4 -5 -5 -5 -5 -5 -5 -4 -3 -3 -2 -1 1 2 3 3 4
-11 -10 -9 -9 -9 -9 -9 -10 -10 -10 -10 -10 -9 -9 -9 -8 -8 -7 -7 -6 -5 -4 -4 -5 -6 -6 -6 -6 -5 -5 -4 -3 -2 -1 1 2 2 3
-11 -11 -11 -11 -11 -11 -11 -11 -11 -11 -11 -11 -11 -10 -10 -10 -9 -9 -9 -8 -8 -6 -4 -4 -6 -6 -6 -6 -6 -5 -4 -3 -2 -1 -1 0 1 2
-12 -12 -12 -12 -12 -12 -12 -12 -12 -12 -12 -12 -12 -12 -12 -11 -11 -10 -10 -10 -10 -9 -8 -6 -6 -7 -7 -6 -5 -5 -4 -4 -3 -2 -1 -1 0 1
-12 -13 -13 -13 -13 -13 -13 -13 -13 -13 -13 -13 -13 -13 -13 -12 -12 -12 -11 -11 -11 -11 -10 -9 -9 -9 -8 -7 -6 -5 -5 -4 -3 -3 -2 -1 -0 1
-14 -14 -14 -14 -14 -14 -14 -14 -14 -14 -14 -14 -14 -13 -13 -13 -13 -12 -12 -12 -12 -12 -11 -10 -9 -9 -9 -8 -7 -6 -5 -5 -4 -3 -2 -1 -1 0
-14 -14 -15 -15 -15 -15 -15 -15 -15 -15 -15 -14 -14 -14 -14 -13 -13 -12 -12 -12 -13 -12 -12 -11 -9 -9 -9 -9 -8 -7 -5 -5 -5 -4 -3 -2 -1 -1
-15 -15 -15 -15 -16 -16 -16 -16 -16 -15 -15 -15 -15 -14 -14 -13 -13 -13 -13 -13 -13 -12 -12 -11 -10 -10 -10 -9 -8 -8 -6 -5 -5 -4 -3 -2 -2 -1
-15 -15 -15 -16 -16 -16 -16 -16 -16 -16 -15 -15 -15 -14 -14 -13 -13 -13 -13 -13 -13 -12 -12 -11 -10 -10 -9 -9 -8 -7 -6 -5 -5 -4 -3 -2 -1 -1
Wind_Speed
8 8 8 8 7 8 8 9 10 10 9 9 7 6 5 6 5 8 9 5 8 12 13 14 14 14 13 14 17 21 23 23 23 25 30 34 34 33
6 8 8 7 7 7 8 9 10 11 11 9 7 7 6 6 5 8 9 8 11 10 11 13 14 15 15 14 14 18 22 24 24 25 28 33 35 34
9 9 10 10 8 8 8 9 10 11 12 11 8 7 8 8 6 7 8 8 8 7 9 13 14 16 16 16 15 16 19 22 24 25 27 30 36 36
9 9 10 9 11 10 10 11 11 12 12 13 9 7 7 7 7 8 7 7 8 8 9 13 14 15 16 17 17 15 16 19 22 24 26 29 33 36
3 3 5 7 10 9 10 10 9 9 9 9 8 5 5 6 7 8 9 8 8 9 11 13 13 13 14 15 15 14 14 17 20 23 25 27 30 34
7 7 8 7 6 4 3 3 4 6 6 6 6 5 5 5 7 7 8 8 9 9 11 12 13 13 13 13 12 11 12 15 18 21 24 25 27 30
8 8 9 11 13 10 6 5 3 1 1 2 3 3 4 4 6 6 9 10 11 9 8 8 8 9 9 9 10 10 10 12 17 20 22 24 25 28
6 5 6 8 10 11 12 10 8 5 3 2 3 5 6 6 6 7 8 9 8 6 9 10 10 11 11 10 10 11 12 12 14 18 20 22 25 28
4 4 4 5 5 5 6 5 4 5 6 5 6 6 6 7 8 9 9 10 11 11 11 13 11 12 11 11 13 14 15 14 13 15 18 20 24 27
4 5 6 6 6 8 7 6 6 4 5 6 5 6 6 7 9 10 12 12 13 11 11 12 12 12 12 12 13 14 16 16 15 14 16 18 19 24
4 5 6 6 7 9 8 7 7 6 4 6 8 9 11 12 10 8 9 9 10 10 9 10 12 12 12 13 12 14 15 17 17 16 17 17 17 19
3 3 4 7 9 10 8 7 7 7 8 8 8 8 8 7 8 7 7 8 9 7 7 7 10 10 8 8 8 7 8 11 15 17 18 17 15 12
3 3 3 8 10 9 8 6 7 10 9 8 8 7 6 5 5 6 6 7 8 8 8 9 10 11 11 12 13 13 12 11 10 10 13 16 16 13
4 4 4 9 10 9 7 8 9 9 6 6 7 6 6 6 6 8 9 9 10 12 13 12 10 12 13 14 13 11 12 11 11 10 9 10 13 16
5 5 7 9 9 6 5 8 8 5 5 6 6 7 7 8 9 9 9 9 11 12 13 14 13 12 12 14 15 14 14 13 12 11 10 10 9 9
4 3 6 7 6 6 6 5 5 5 6 6 6 7 8 8 8 8 9 9 10 11 10 11 13 14 13 14 14 14 14 11 10 11 11 10 10 10
3 5 5 5 5 5 5 5 5 6 6 6 6 7 8 8 9 8 8 9 10 12 13 10 10 11 14 14 13 14 14 14 14 14 14 14 12 11
3 5 5 5 6 6 6 6 6 6 6 6 7 7 8 9 9 9 9 9 10 11 13 13 12 12 11 11 14 16 15 15 14 15 15 15 14 12
4 5 5 5 6 6 6 6 6 7 7 7 8 8 8 9 9 10 10 10 11 11 12 13 12 12 13 14 10 12 13 13 13 14 15 15 14 12
5 5 6 6 6 6 6 7 7 7 7 8 8 9 9 9 10 11 11 12 12 12 13 13 13 13 14 15 15 16 16 15 14 14 14 12 9 5
6 6 6 6 7 7 7 7 8 8 9 9 9 10 9 9 10 11 12 16 15 13 14 14 15 18 16 14 15 17 17 15 16 15 13 11 8 7
7 7 7 7 7 8 8 8 8 9 9 9 9 9 9 10 12 14 13 14 13 14 16 15 16 15 14 15 17 18 18 13 10 11 15 13 8 9
8 8 8 8 8 8 8 9 10 10 10 10 10 10 10 11 12 13 14 15 15 16 16 16 15 14 15 15 16 16 18 14 8 6 3 4 7 7
Wind_Direction
250 250 247 245 240 238 239 243 252 262 262 265 267 281 294 303 319 308 305 338 310 297 291 286 281 278 280 284 279 272 266 260 253 247 241 230 223 216
257 254 249 248 244 237 236 239 244 253 262 263 259 269 288 292 305 305 309 314 276 279 292 293 289 281 274 276 282 278 267 259 253 249 246 234 223 214
259 259 258 256 252 246 240 239 240 243 252 258 257 264 274 282 296 306 311 309 305 293 299 302 298 290 281 275 277 282 276 264 255 249 246 237 226 216
265 266 265 264 258 255 248 243 242 240 245 255 252 252 266 283 298 305 309 308 307 311 305 298 293 288 282 276 271 275 279 271 260 252 245 238 228 217
303 298 296 280 266 257 251 247 242 235 235 245 249 248 266 284 301 301 303 306 307 307 300 289 284 282 282 280 273 274 283 280 268 258 249 240 227 216
49 41 27 14 355 326 285 265 237 221 215 225 238 246 262 289 300 306 309 308 305 306 299 292 285 280 274 275 276 281 295 300 287 268 249 234 219 208
46 42 35 26 24 26 36 33 24 20 216 230 245 268 275 296 305 313 306 308 302 297 297 303 309 304 294 277 268 275 291 307 304 283 253 229 212 203
44 34 28 24 16 20 31 35 29 23 358 314 280 274 284 296 301 300 302 299 298 306 306 300 301 293 289 284 282 277 278 290 307 300 269 233 213 204
39 17 7 5 0 2 2 355 2 15 357 320 290 286 295 299 302 297 291 288 286 293 298 291 290 285 283 278 272 267 270 273 285 300 290 252 222 211
22 2 345 337 346 345 334 320 310 307 327 307 302 300 301 307 303 295 292 289 285 281 280 283 287 284 286 283 275 261 259 263 269 279 285 273 239 219
355 353 341 329 346 338 323 314 308 304 303 302 307 302 299 295 296 293 289 288 289 291 292 286 289 291 289 283 277 262 253 254 257 262 270 272 256 232
327 341 4 352 349 344 330 319 311 319 321 315 308 302 297 292 289 284 290 287 288 291 290 294 299 311 302 294 299 310 296 272 258 257 259 262 258 246
329 338 1 355 351 349 337 324 328 325 317 313 311 312 314 313 312 309 304 291 282 274 288 301 294 292 285 289 294 296 295 292 287 273 256 251 246 241
321 329 352 351 344 339 331 335 332 320 309 311 311 315 321 323 321 314 301 288 275 272 278 284 279 280 282 283 285 286 286 288 288 281 274 262 245 237
319 337 337 338 331 319 325 328 317 309 312 306 305 311 316 314 312 308 303 295 286 276 271 268 269 274 274 275 278 279 280 278 276 276 274 264 257 245
297 311 315 317 308 306 309 305 306 311 308 301 304 306 307 307 306 311 311 313 305 297 286 279 276 274 272 272 274 275 273 270 270 272 269 265 256 247
311 300 305 313 312 311 306 303 305 300 294 298 300 301 302 304 306 309 305 304 296 298 303 300 290 282 275 274 271 268 268 265 261 261 262 261 255 247
301 294 299 301 302 306 307 307 304 299 301 300 295 294 297 300 301 302 298 293 290 290 292 298 302 299 289 275 248 256 257 259 259 256 253 255 255 247
289 287 287 289 292 294 296 297 298 300 301 293 289 290 292 292 293 295 295 291 286 284 285 288 289 288 288 287 274 252 264 268 261 255 253 251 252 249
276 274 276 279 282 284 287 290 293 294 290 287 286 285 286 287 288 288 290 289 287 286 284 281 276 273 271 278 283 284 276 274 271 264 256 252 249 251
278 273 274 278 282 283 284 286 288 288 288 287 284 282 282 283 283 285 287 288 286 282 280 279 278 280 280 279 275 272 270 258 255 263 265 249 231 213
278 276 276 277 279 279 280 282 285 286 285 281 279 278 279 280 280 282 283 284 283 281 282 281 281 280 272 268 266 270 273 264 245 253 255 242 221 209
277 277 278 277 275 276 278 280 282 283 282 281 279 277 278 280 281 281 281 281 281 282 283 283 282 277 271 265 265 264 263 253 234 226 260 253 233 193
Height
1441 1441 1441 1441 1442 1443 1445 1446 1448 1447 1446 1446 1446 1445 1444 1443 1441 1441 1441 1440 1440 1440 1441 1441 1442 1442 1443 1443 1445 1447 1449 1451 1454 1456 1459 1463 1466 1469
1435 1436 1436 1436 1437 1438 1439 1441 1442 1443 1442 1442 1442 1441 1440 1439 1438 1437 1436 1435 1435 1435 1435 1435 1435 1436 1437 1437 1437 1438 1440 1442 1445 1447 1450 1453 1457 1461
1429 1429 1430 1431 1431 1432 1433 1434 1436 1437 1437 1437 1437 1436 1436 1435 1435 1433 1432 1431 1431 1430 1429 1429 1429 1429 1430 1430 1431 1431 1432 1434 1436 1439 1441 1445 1448 1452
1422 1422 1423 1424 1425 1426 1427 1428 1429 1430 1431 1431 1431 1431 1431 1431 1430 1429 1427 1426 1426 1425 1424 1424 1423 1423 1423 1423 1423 1424 1424 1425 1427 1430 1432 1435 1439 1441
1416 1416 1416 1417 1418 1419 1420 1421 1422 1422 1423 1424 1425 1425 1425 1425 1425 1424 1423 1421 1420 1420 1419 1418 1417 1417 1416 1416 1415 1416 1416 1417 1418 1420 1423 1427 1431 1434
1411 1411 1412 1412 1413 1413 1413 1414 1415 1416 1417 1418 1419 1420 1420 1420 1420 1419 1417 1416 1415 1414 1413 1412 1411 1410 1409 1409 1408 1408 1408 1408 1409 1411 1413 1417 1421 1425
1409 1409 1409 1409 1409 1409 1409 1409 1410 1411 1412 1412 1413 1414 1415 1415 1414 1412 1411 1410 1409 1408 1407 1406 1405 1404 1403 1402 1401 1400 1400 1400 1400 1402 1404 1408 1412 1416
1407 1407 1407 1407 1406 1406 1406 1406 1407 1407 1407 1408 1408 1409 1410 1410 1409 1407 1406 1404 1402 1402 1401 1399 1398 1396 1395 1395 1394 1393 1392 1392 1393 1393 1395 1398 1403 1407
1406 1405 1405 1404 1403 1402 1402 1402 1403 1403 1404 1404 1404 1404 1404 1404 1403 1402 1401 1399 1397 1396 1394 1391 1391 1389 1388 1387 1386 1385 1385 1385 1385 1385 1386 1389 1394 1398
1403 1402 1402 1401 1400 1399 1399 1399 1399 1399 1398 1399 1399 1398 1398 1398 1397 1396 1395 1393 1391 1390 1389 1387 1385 1384 1382 1380 1378 1378 1378 1378 1378 1379 1379 1381 1385 1389
1400 1399 1398 1398 1397 1396 1396 1395 1395 1395 1394 1393 1392 1392 1392 1392 1391 1391 1389 1388 1386 1385 1385 1383 1380 1378 1375 1373 1372 1371 1370 1371 1371 1372 1373 1374 1376 1381
1398 1396 1395 1394 1394 1393 1393 1393 1392 1392 1390 1389 1388 1388 1387 1386 1386 1385 1384 1383 1381 1380 1379 1378 1376 1374 1369 1368 1368 1366 1365 1365 1365 1366 1367 1368 1369 1372
1396 1395 1394 1392 1391 1390 1390 1390 1389 1387 1386 1385 1384 1383 1383 1382 1381 1379 1378 1377 1375 1374 1374 1373 1370 1369 1367 1363 1362 1361 1361 1360 1360 1360 1361 1362 1364 1366
1395 1394 1392 1389 1388 1387 1387 1386 1385 1384 1383 1382 1381 1379 1378 1377 1375 1373 1372 1370 1368 1367 1366 1366 1364 1363 1361 1358 1355 1354 1354 1354 1355 1355 1355 1356 1358 1360
1392 1390 1388 1386 1385 1385 1384 1383 1382 1381 1379 1378 1377 1375 1373 1371 1369 1367 1365 1363 1361 1360 1359 1358 1357 1356 1354 1352 1349 1348 1347 1347 1348 1348 1349 1350 1351 1352
1388 1387 1385 1383 1382 1381 1380 1379 1378 1377 1375 1374 1372 1370 1368 1366 1363 1361 1359 1356 1354 1353 1353 1351 1350 1348 1346 1344 1343 1341 1341 1341 1340 1342 1342 1342 1343 1345
1385 1384 1383 1381 1379 1378 1377 1375 1374 1372 1371 1369 1367 1365 1363 1360 1358 1356 1353 1351 1349 1346 1344 1344 1343 1341 1338 1337 1334 1333 1333 1332 1333 1333 1334 1334 1334 1337
1381 1381 1379 1378 1376 1374 1373 1371 1369 1368 1366 1364 1362 1360 1358 1356 1353 1351 1349 1346 1344 1341 1338 1336 1334 1332 1330 1328 1327 1325 1324 1324 1324 1325 1326 1326 1326 1329
1377 1376 1375 1373 1372 1370 1368 1366 1364 1363 1361 1359 1357 1355 1353 1351 1348 1346 1343 1341 1338 1335 1332 1330 1328 1327 1324 1320 1319 1320 1319 1317 1317 1316 1317 1318 1318 1321
1373 1372 1371 1369 1368 1366 1364 1362 1359 1358 1356 1354 1352 1350 1348 1346 1343 1340 1338 1335 1332 1329 1326 1324 1322 1320 1319 1315 1312 1309 1310 1310 1309 1308 1309 1309 1310 1313
1369 1368 1367 1365 1363 1361 1359 1357 1355 1353 1351 1349 1346 1344 1343 1340 1337 1335 1331 1328 1325 1322 1319 1316 1313 1312 1310 1308 1304 1299 1297 1299 1299 1299 1300 1302 1302 1304
1364 1363 1362 1360 1359 1357 1354 1352 1350 1347 1345 1343 1341 1339 1338 1335 1332 1328 1325 1321 1318 1315 1311 1307 1304 1302 1301 1298 1294 1291 1288 1289 1289 1290 1292 1293 1294 1296
1359 1358 1356 1355 1353 1351 1349 1347 1344 1342 1340 1337 1335 1334 1332 1329 1326 1322 1318 1314 1311 1307 1304 1300 1296 1294 1291 1289 1286 1283 1281 1280 1281 1282 1283 1284 1287 1291